[keps] orb08234.2l.amsat

Ray Hoad r.hoad at att.net
Thu Aug 21 19:14:10 PDT 2008


SB KEPS @ AMSAT  $ORB08234.N
2Line Orbital Elements 08234.AMSAT

HR AMSAT ORBITAL ELEMENTS FOR AMATEUR SATELLITES IN NASA FORMAT
FROM WA5QGD FORT WORTH,TX August 21, 2008
Send Subscribe/unsubscribe to KEPS at 
http://www.amsat.org/mailman/listinfo/keps
BID: ORB08234.N

DECODE 2-LINE ELSETS WITH THE FOLLOWING KEY:
1 AAAAAU 00  0  0 BBBBB.BBBBBBBB  .CCCCCCCC  00000-0  00000-0 0  DDDZ
2 AAAAA EEE.EEEE FFF.FFFF GGGGGGG HHH.HHHH III.IIII JJ.JJJJJJJJKKKKKZ
KEY: A-CATALOGNUM B-EPOCHTIME C-DECAY D-ELSETNUM E-INCLINATION F-RAAN
G-ECCENTRICITY H-ARGPERIGEE I-MNANOM J-MNMOTION K-ORBITNUM Z-CHECKSUM

TO ALL RADIO AMATEURS BT

AO-07
1 07530U 74089B   08234.65511774 -.00000027  00000-0  10000-3 0  2577
2 07530 101.4627 263.9532 0012198 133.6975 226.5112 12.53573964545180
AO-10
1 14129U 83058B   08234.27716627 -.00000078  00000-0  10000-3 0  5475
2 14129 026.0261 199.5308 5969425 150.3823 263.7562 02.05868850189442
UO-11
1 14781U 84021B   08233.63153778  .00000053  00000-0  14380-4 0 07505
2 14781 098.1497 268.6146 0008335 221.4145 138.6416 14.79659540313389
RS-15
1 23439U 94085A   08234.82301456 -.00000039  00000-0  10000-3 0  1396
2 23439 064.8159 028.9067 0146991 110.3694 251.3098 11.27553007562363
FO-29
1 24278U 96046B   08233.90487316 -.00000024  00000-0  10558-4 0 08597
2 24278 098.5823 141.7132 0351263 048.1301 314.9252 13.52939302593141
SO-33
1 25509U 98061B   08234.54454856  .00000068  00000-0 -11353-5 0  2685
2 25509 031.4358 306.8088 0355275 238.6689 117.8712 14.28222079512966
AO-40
1 26609U 00072B   08231.70263693 -.00000317  00000-0  10000-3 0  1046
2 26609 007.6890 065.8690 7929895 113.4517 342.4811 01.25585855 35825
VO-52
1 28650U 05017B   08234.85367545 -.00000146  00000-0 -11878-4 0   111
2 28650 097.7852 299.6460 0026030 287.4171 072.4171 14.81490629178325
PO-63
1 29712U 07001D   08234.72750280  .00000403  00000-0  59665-4 0  7289
2 29712 097.8715 291.6703 0014443 163.9867 196.1807 14.80243394 87166
AO-16
1 20439U 90005D   08234.90021657 -.00000027  00000-0  50641-5 0  3994
2 20439 098.2361 211.6226 0010974 346.8693 013.2206 14.31800527970325
LO-19
1 20442U 90005G   08233.95844268  .00000053  00000-0  34831-4 0  3229
2 20442 098.2060 219.0677 0011745 347.3109 012.7856 14.32039106970347
AO-27
1 22825U 93061C   08233.67742257  .00000103  00000-0  57118-4 0 00467
2 22825 098.3897 191.2979 0009337 073.1785 287.0418 14.29245575776987
IO-26
1 22826U 93061D   08233.93023065 -.00000026  00000-0  63311-5 0 07540
2 22826 098.3822 192.4222 0009938 067.7963 292.4267 14.29494213777117
PO-28
1 22829U 93061G   08234.86449400 -.00000059  00000-0 -64958-5 0   178
2 22829 098.3719 194.4142 0010439 039.0835 321.1111 14.30195005777517
GO-32
1 25397U 98043D   08234.63666942  .00000019  00000-0  26380-4 0  6775
2 25397 098.3596 266.5540 0002062 071.4346 288.7057 14.23147384525524
NO-44
1 26931U 01043C   08233.79250402 -.00000132  00000-0 -19050-4 0 09597
2 26931 067.0529 118.2263 0007328 264.8479 095.1805 14.29530307359644
SO-50
1 27607U 02058C   08234.45915285 -.00000069  00000-0  11754-4 0  6796
2 27607 064.5560 215.4034 0086592 267.0035 092.1181 14.71374646304576
CO-55
1 27844U 03031E   08234.72817382  .00000021  00000-0  30051-4 0  3784
2 27844 098.7167 242.0873 0009048 291.3512 068.6681 14.20592630266747
CO-57
1 27848U 03031J   08234.52376143  .00000029  00000-0  34164-4 0  3283
2 27848 098.7177 240.9706 0009255 296.1590 063.8635 14.20401158266686
AO-51
1 28375U 04025K   08234.82294774 -.00000008  00000-0  10460-4 0  1790
2 28375 098.0686 255.6943 0084026 314.5570 044.8780 14.40615947217858
CO-56
1 28941U 06005C   08234.82535062  .00034367  27759-5  23854-3 0  3080
2 28941 098.1133 354.6665 0157589 161.8964 198.7939 15.59696291140268
CP3
1 31128U 07012M   08233.83799852 -.00000046  00000-0  00000-0 0 04134
2 31128 098.0343 294.5288 0104019 134.6209 226.3523 14.51969453071314
CP4
1 31132U 07012Q   08234.89824106 -.00000112  00000-0 -14411-4 0  3923
2 31132 098.0367 298.0178 0087141 124.1334 236.8163 14.55136674 71503
NOAA-10
1 16969U 86073A   08233.57557078  .00000085  00000-0  52927-4 0 02563
2 16969 098.7202 255.4103 0012207 358.1176 001.9952 14.27366787140624
NOAA-11
1 19531U 88089A   08233.66175277  .00000174  00000-0  11285-3 0 02893
2 19531 098.7970 322.0858 0010830 243.1024 116.9049 14.14875464027022
NOAA-12
1 21263U 91032A   08233.98594851  .00000022  00000-0  28157-4 0 08275
2 21263 098.7701 235.9384 0011716 301.3447 058.6593 14.25542955897620
MET-3/5
1 21655U 91056A   08234.90659237  .00000051  00000-0  10000-3 0  4768
2 21655 082.5524 057.9444 0012755 204.4657 155.5861 13.17017500818236
MET-2/21
1 22782U 93055A   08233.93074964  .00000073  00000-0  52511-4 0 02307
2 22782 082.5432 060.2083 0023984 107.3514 253.0296 13.83630541756080
OKEAN-4
1 23317U 94066A   08234.85922110  .00000142  00000-0  14712-4 0  6731
2 23317 082.5362 253.7884 0020347 271.3060 088.5824 14.82629983748013
NOAA-14
1 23455U 94089A   08233.73942774  .00000094  00000-0  73616-4 0 02755
2 23455 098.9427 306.0074 0008755 326.0475 034.0121 14.13747715703474
SICH-1
1 23657U 95046A   08233.71274941  .00000184  00000-0  20400-4 0 04727
2 23657 082.5263 035.8444 0022171 268.1889 091.6760 14.81598406699777
NOAA-15
1 25338U 98030A   08233.68758389 -.00000154  00000-0 -47761-4 0 05910
2 25338 098.5589 223.9200 0010027 209.0839 150.9753 14.24720331533981
RESURS
1 25394U 98043A   08234.65842336  .00000025  00000-0  28676-4 0    37
2 25394 098.3830 275.6191 0002239 029.6034 330.5270 14.24168079525764
FENGYUN1
1 25730U 99025A   08233.94992950  .00000151  00000-0  11418-3 0 06010
2 25730 098.7251 207.5485 0021418 349.1614 010.9092 14.07753651478072
OKEAN-0
1 25860U 99039A   08234.78118634  .00000018  00000-0  99687-5 0  4512
2 25860 097.7547 222.4418 0001895 066.2426 293.8976 14.73532846489057
NOAA-16
1 26536U 00055A   08233.66801489  .00000250  00000-0  16071-3 0 00659
2 26536 099.1615 224.2721 0011286 047.9798 312.2311 14.12495297407870
NOAA-17
1 27453U 02032A   08233.83685994  .00000127  00000-0  74033-4 0 00594
2 27453 098.5291 296.5761 0010690 280.0174 079.9778 14.23996494320004
NOAA-18
1 28654U 05018A   08233.78655421 -.00000137  00000-0 -51768-4 0 05487
2 28654 098.8690 173.9297 0015009 128.1571 232.0963 14.11185075167580
HUBBLE
1 20580U 90037B   08233.53397704  .00000289  00000-0  94947-5 0 02189
2 20580 028.4694 263.5273 0003528 348.4868 011.5639 15.00400612804654
PO-34
1 25520U 98064B   08233.92323446  .00000364  00000-0  81223-5 0 00636
2 25520 028.4582 105.3703 0005287 268.0753 091.9237 15.17220102543001
ISS
1 25544U 98067A   08233.82792824  .00008181  00000-0  68322-4 0 00958
2 25544 051.6419 044.5284 0008365 039.4067 163.5781 15.71055617558700
CO-58
1 28895U 05043F   08234.72156548  .00000105  00000-0  31513-4 0  1006
2 28895 098.0890 127.1559 0017351 201.2050 158.8446 14.59690711150044
NCUBE2
1 28897U 05043H   08234.67840281  .00000061  00000-0  22380-4 0  6318
2 28897 098.0870 127.0384 0016560 203.5592 156.4862 14.59862498142327
FALCON
1 30776U 07006E   08233.94186552  .00000205  00000-0  17985-4 0 03807
2 30776 035.4333 120.7572 0001354 260.2693 099.7870 15.03036201079895
MAST
1 31126U 07012K   08234.64259006  .00000142  00000-0  42440-4 0  4015
2 31126 098.0353 296.4463 0095946 128.7680 232.2230 14.53441410 71528
CAPE1
1 31130U 07012P   08233.83206071  .00000048  00000-0  21628-4 0  3844
2 31130 098.0348 294.5314 0103826 134.4490 226.5251 14.51986257 71105
CUTE1-7
1 32785U 08021C   08234.84153107 -.00000069  00000-0 -18820-5 0  1366
2 32785 097.9873 294.5855 0013823 284.7182 075.2469 14.81384406 17120
COMPASS
1 32787U 08021E   08234.83725784  .00000060  00000-0  14519-4 0  1261
2 32787 097.9844 294.5259 0014902 286.3653 073.5920 14.81448835 17128
AAUSAT2
1 32788U 08021F   08234.69370455  .00000316  00000-0  47143-4 0  1260
2 32788 097.9835 294.3997 0014249 290.7638 069.2050 14.81559969 17107
DO-64
1 32789U 08021G   08233.96015611  .00000370  00000-0  54107-4 0 01426
2 32789 097.9866 293.6938 0014753 289.2905 070.6717 14.81454014016996
SEEDS
1 32791U 08021J   08233.29462270  .00000219  00000-0  34910-4 0 01299
2 32791 097.9867 293.0047 0015264 289.5339 070.4215 14.81304434016864
CANX-2
1 32797U 08021L   08234.40699415  .00002007  00000-0  25952-3 0   653
2 32797 097.9918 294.2483 0014735 287.4139 072.5495 14.81970035 15746
RS-30
1 32953U 08025A   08233.80189825  .00000010  00000-0  00000 0 0   872
2 32953 082.4978 083.4092 0019578 111.5619 248.7557 12.42996933 11077
/EX






More information about the Keps mailing list